| time (UTC) | temp F | wind direction | speed knots | gust knots | rain 1hr in | rain 24hr in | rain mn in | humidity % | barometer mb |
| 20260505212125 | 52 | 354 | 3.5 | 12.2 | 0.00 | 0.00 | 0.00 | 81 | 1009.6 |
| 20260505211621 | 52 | 29 | 5.2 | 7.8 | 0.00 | 0.00 | 0.00 | 81 | 1009.9 |
| 20260505211117 | 53 | 62 | 2.6 | 6.1 | 0.00 | 0.00 | 0.00 | 80 | 1009.6 |
| 20260505210613 | 53 | 86 | 4.3 | 8.7 | 0.00 | 0.00 | 0.00 | 80 | 1009.7 |
| 20260505210109 | 54 | 52 | 3.5 | 8.7 | 0.00 | 0.00 | 0.00 | 78 | 1009.6 |
| 20260505205605 | 54 | 21 | 6.1 | 11.3 | 0.00 | 0.00 | 0.00 | 74 | 1009.6 |
| 20260505205102 | 55 | 54 | 5.2 | 7.0 | 0.00 | 0.00 | 0.00 | 71 | 1009.6 |
| 20260505204558 | 55 | 43 | 9.6 | 13.9 | 0.00 | 0.00 | 0.00 | 68 | 1009.5 |
| 20260505204054 | 55 | 346 | 1.7 | 5.2 | 0.00 | 0.00 | 0.00 | 67 | 1009.4 |
| 20260505203549 | 55 | 41 | 1.7 | 2.6 | 0.00 | 0.00 | 0.00 | 68 | 1009.3 |
| 20260505203045 | 55 | 58 | 2.6 | 5.2 | 0.00 | 0.00 | 0.00 | 69 | 1009.2 |
| 20260505202541 | 55 | 32 | 3.5 | 6.1 | 0.00 | 0.00 | 0.00 | 71 | 1009.4 |
| 20260505202037 | 55 | 56 | 2.6 | 6.1 | 0.00 | 0.00 | 0.00 | 71 | 1009.3 |
| 20260505201533 | 55 | 51 | 1.7 | 3.5 | 0.00 | 0.00 | 0.00 | 70 | 1009.0 |
| 20260505201029 | 55 | 78 | 0.9 | 3.5 | 0.00 | 0.00 | 0.00 | 70 | 1009.0 |
| 20260505200525 | 55 | 47 | 2.6 | 3.5 | 0.00 | 0.00 | 0.00 | 70 | 1009.1 |
| 20260505200021 | 55 | 45 | 2.6 | 2.6 | 0.00 | 0.00 | 0.00 | 70 | 1009.1 |
| 20260505195517 | 55 | 106 | 1.7 | 3.5 | 0.00 | 0.00 | 0.00 | 70 | 1008.8 |
| 20260505195014 | 55 | 52 | 0.9 | 1.7 | 0.00 | 0.00 | 0.00 | 70 | 1008.5 |
| 20260505194510 | 55 | 89 | 2.6 | 5.2 | 0.00 | 0.00 | 0.00 | 69 | 1008.6 |
| 20260505194005 | 55 | 69 | 0.9 | 3.5 | 0.00 | 0.00 | 0.00 | 69 | 1008.7 |
| 20260505193501 | 56 | 51 | 3.5 | 5.2 | 0.00 | 0.00 | 0.00 | 68 | 1008.6 |
| 20260505192957 | 56 | 67 | 1.7 | 3.5 | 0.00 | 0.00 | 0.00 | 68 | 1008.7 |
| 20260505192453 | 56 | 32 | 1.7 | 3.5 | 0.00 | 0.00 | 0.00 | 69 | 1008.6 |
| 20260505191949 | 56 | 344 | 0.9 | 3.5 | 0.00 | 0.00 | 0.00 | 68 | 1008.4 |
| 20260505191445 | 57 | 16 | 3.5 | 7.8 | 0.00 | 0.00 | 0.00 | 67 | 1008.4 |
| 20260505190941 | 57 | 7 | 1.7 | 6.1 | 0.00 | 0.00 | 0.00 | 65 | 1008.4 |
| 20260505190437 | 57 | 46 | 3.5 | 3.5 | 0.00 | 0.00 | 0.00 | 64 | 1008.3 |
| 20260505185933 | 57 | 33 | 3.5 | 3.5 | 0.00 | 0.00 | 0.00 | 64 | 1008.4 |
| 20260505185429 | 58 | 17 | 3.5 | 3.5 | 0.00 | 0.00 | 0.00 | 63 | 1008.1 |
| 20260505184926 | 58 | 50 | 2.6 | 3.5 | 0.00 | 0.00 | 0.00 | 62 | 1008.1 |
| 20260505184422 | 58 | 82 | 1.7 | 2.6 | 0.00 | 0.00 | 0.00 | 62 | 1008.1 |
| 20260505183917 | 58 | 104 | 0.0 | 0.9 | 0.00 | 0.00 | 0.00 | 62 | 1007.8 |
| 20260505183413 | 58 | 127 | 0.9 | 0.9 | 0.00 | 0.00 | 0.00 | 62 | 1007.9 |
| 20260505182909 | 58 | 72 | 0.9 | 1.7 | 0.00 | 0.00 | 0.00 | 62 | 1007.9 |
| 20260505182405 | 58 | 82 | 1.7 | 3.5 | 0.00 | 0.00 | 0.00 | 62 | 1008.0 |
| 20260505181901 | 58 | 90 | 1.7 | 2.6 | 0.00 | 0.00 | 0.00 | 62 | 1008.0 |
| 20260505181357 | 58 | 55 | 1.7 | 3.5 | 0.00 | 0.00 | 0.00 | 62 | 1008.0 |
| 20260505180853 | 58 | 36 | 0.9 | 5.2 | 0.00 | 0.00 | 0.00 | 62 | 1007.8 |
| 20260505180349 | 58 | 91 | 2.6 | 3.5 | 0.00 | 0.00 | 0.00 | 61 | 1008.0 |
| 20260505175845 | 58 | 62 | 1.7 | 5.2 | 0.00 | 0.00 | 0.00 | 61 | 1007.9 |
| 20260505175341 | 58 | 134 | 1.7 | 3.5 | 0.00 | 0.00 | 0.00 | 61 | 1008.1 |
| 20260505174838 | 58 | 55 | 1.7 | 2.6 | 0.00 | 0.00 | 0.00 | 61 | 1008.0 |
| 20260505174334 | 58 | 76 | 0.9 | 5.2 | 0.00 | 0.00 | 0.00 | 60 | 1008.2 |
| 20260505173830 | 59 | 78 | 0.9 | 1.7 | 0.00 | 0.00 | 0.00 | 59 | 1008.0 |
| 20260505173326 | 59 | 134 | 1.7 | 2.6 | 0.00 | 0.00 | 0.00 | 59 | 1008.1 |
| 20260505172822 | 59 | 111 | 0.9 | 3.5 | 0.00 | 0.00 | 0.00 | 59 | 1008.0 |
| 20260505172318 | 59 | 86 | 1.7 | 2.6 | 0.00 | 0.00 | 0.00 | 59 | 1007.9 |
| 20260505171814 | 59 | 111 | 1.7 | 3.5 | 0.00 | 0.00 | 0.00 | 59 | 1008.0 |
| 20260505171310 | 59 | 136 | 1.7 | 6.1 | 0.00 | 0.00 | 0.00 | 59 | 1008.2 |
| 20260505170806 | 59 | 124 | 3.5 | 6.1 | 0.00 | 0.00 | 0.00 | 58 | 1008.2 |
| 20260505170302 | 59 | 91 | 0.0 | 6.1 | 0.00 | 0.00 | 0.00 | 57 | 1008.1 |
| 20260505165758 | 59 | 89 | 3.5 | 5.2 | 0.00 | 0.00 | 0.00 | 56 | 1008.2 |
| 20260505165254 | 59 | 48 | 2.6 | 3.5 | 0.00 | 0.00 | 0.00 | 56 | 1008.1 |
| 20260505164749 | 59 | 48 | 3.5 | 5.2 | 0.00 | 0.00 | 0.00 | 55 | 1008.0 |
| 20260505164245 | 59 | 64 | 1.7 | 2.6 | 0.00 | 0.00 | 0.00 | 56 | 1008.0 |
| 20260505163741 | 59 | 99 | 3.5 | 5.2 | 0.00 | 0.00 | 0.00 | 55 | 1008.1 |
| 20260505163237 | 60 | 114 | 2.6 | 5.2 | 0.00 | 0.00 | 0.00 | 55 | 1008.2 |
| 20260505162733 | 60 | 100 | 2.6 | 7.0 | 0.00 | 0.00 | 0.00 | 54 | 1008.2 |
| 20260505162229 | 60 | 131 | 3.5 | 5.2 | 0.00 | 0.00 | 0.00 | 54 | 1008.2 |
| 20260505161725 | 60 | 81 | 4.3 | 6.1 | 0.00 | 0.00 | 0.00 | 54 | 1007.9 |
| 20260505161221 | 60 | 33 | 4.3 | 7.0 | 0.00 | 0.00 | 0.00 | 54 | 1008.1 |
| 20260505160717 | 60 | 92 | 3.5 | 6.1 | 0.00 | 0.00 | 0.00 | 53 | 1008.1 |
| 20260505160213 | 60 | 82 | 5.2 | 6.1 | 0.00 | 0.00 | 0.00 | 53 | 1008.3 |
| 20260505153148 | 61 | 49 | 2.6 | 3.5 | 0.00 | 0.00 | 0.00 | 52 | 1007.9 |
| 20260505152644 | 61 | 67 | 3.5 | 6.1 | 0.00 | 0.00 | 0.00 | 51 | 1008.0 |
| 20260505152140 | 61 | 67 | 1.7 | 3.5 | 0.00 | 0.00 | 0.00 | 51 | 1008.2 |
| 20260505151636 | 62 | 52 | 0.0 | 2.6 | 0.00 | 0.00 | 0.00 | 51 | 1008.0 |
| 20260505151132 | 61 | 292 | 0.0 | 0.9 | 0.00 | 0.00 | 0.00 | 51 | 1007.9 |
| 20260505150628 | 62 | 46 | 4.3 | 5.2 | 0.00 | 0.00 | 0.00 | 50 | 1008.1 |
| 20260505150124 | 61 | 45 | 2.6 | 2.6 | 0.00 | 0.00 | 0.00 | 52 | 1008.2 |
| 20260505140541 | 61 | 77 | 2.6 | 7.8 | 0.00 | 0.00 | 0.00 | 51 | 1008.3 |
| 20260505124940 | 62 | 45 | 4.3 | 6.1 | 0.00 | 0.00 | 0.00 | 47 | 1008.6 |
| 20260505124436 | 62 | 283 | 2.6 | 5.2 | 0.00 | 0.00 | 0.00 | 51 | 1008.9 |
| 20260505123932 | 64 | 71 | 0.9 | 3.5 | 0.00 | 0.00 | 0.00 | 49 | 1008.7 |
| 20260505123428 | 62 | 116 | 1.7 | 5.2 | 0.00 | 0.00 | 0.00 | 47 | 1008.3 |
| 20260505122924 | 61 | 335 | 3.5 | 5.2 | 0.00 | 0.00 | 0.00 | 48 | 1008.7 |
| 20260505122420 | 62 | 21 | 3.5 | 7.8 | 0.00 | 0.00 | 0.00 | 49 | 1008.7 |
| 20260505121916 | 61 | 9 | 1.7 | 2.6 | 0.00 | 0.00 | 0.00 | 51 | 1008.7 |
| 20260505121412 | 61 | 30 | 7.8 | 8.7 | 0.00 | 0.00 | 0.00 | 51 | 1008.8 |
| 20260505120908 | 61 | 144 | 0.0 | 3.5 | 0.00 | 0.00 | 0.00 | 52 | 1008.7 |
| 20260505120404 | 61 | 70 | 2.6 | 6.1 | 0.00 | 0.00 | 0.00 | 54 | 1008.8 |
| 20260505115900 | 62 | 37 | 3.5 | 5.2 | 0.00 | 0.00 | 0.00 | 52 | 1008.8 |
| 20260505115356 | 62 | 22 | 4.3 | 7.0 | 0.00 | 0.00 | 0.00 | 49 | 1008.7 |
| 20260505114852 | 62 | 25 | 0.9 | 3.5 | 0.00 | 0.00 | 0.00 | 51 | 1008.8 |
| 20260505114348 | 60 | 34 | 1.7 | 3.5 | 0.00 | 0.00 | 0.00 | 56 | 1008.8 |
| 20260505113844 | 60 | 19 | 6.1 | 7.0 | 0.00 | 0.00 | 0.00 | 57 | 1008.9 |
| 20260505113340 | 60 | 65 | 1.7 | 3.5 | 0.00 | 0.00 | 0.00 | 56 | 1009.0 |
| 20260505112836 | 59 | 6 | 4.3 | 7.8 | 0.00 | 0.00 | 0.00 | 57 | 1008.8 |
| 20260505112332 | 60 | 49 | 4.3 | 8.7 | 0.00 | 0.00 | 0.00 | 57 | 1009.1 |
| 20260505111828 | 60 | 13 | 5.2 | 11.3 | 0.00 | 0.00 | 0.00 | 59 | 1009.2 |
| 20260505111324 | 59 | 65 | 1.7 | 5.2 | 0.00 | 0.00 | 0.00 | 61 | 1008.8 |
| 20260505110820 | 60 | 353 | 5.2 | 6.1 | 0.00 | 0.00 | 0.00 | 58 | 1009.1 |
| 20260505110316 | 59 | 25 | 6.1 | 8.7 | 0.00 | 0.00 | 0.00 | 60 | 1009.0 |
| 20260505101740 | 58 | 61 | 0.9 | 5.2 | 0.00 | 0.00 | 0.00 | 63 | 1009.4 |
| 20260505101236 | 58 | 0 | 2.6 | 7.8 | 0.00 | 0.00 | 0.00 | 63 | 1009.7 |
| 20260505100732 | 58 | 287 | 1.7 | 8.7 | 0.00 | 0.00 | 0.00 | 64 | 1009.4 |
| 20260505100228 | 58 | 16 | 0.9 | 6.1 | 0.00 | 0.00 | 0.00 | 63 | 1009.4 |
| 20260505095724 | 57 | 33 | 2.6 | 7.0 | 0.00 | 0.00 | 0.00 | 64 | 1009.7 |
| 20260505095220 | 57 | 36 | 6.1 | 7.0 | 0.00 | 0.00 | 0.00 | 65 | 1009.8 |
| 20260505094717 | 57 | 71 | 1.7 | 8.7 | 0.00 | 0.00 | 0.00 | 65 | 1009.8 |
| 20260505094213 | 57 | 317 | 1.7 | 6.1 | 0.00 | 0.00 | 0.00 | 66 | 1009.6 |
| 20260505093709 | 56 | 339 | 0.0 | 6.1 | 0.00 | 0.00 | 0.00 | 68 | 1009.6 |
| 20260505093205 | 56 | 339 | 3.5 | 7.8 | 0.00 | 0.00 | 0.00 | 68 | 1009.6 |
| 20260505092701 | 56 | 4 | 2.6 | 5.2 | 0.00 | 0.00 | 0.00 | 70 | 1009.8 |
| 20260505092157 | 55 | 136 | 0.9 | 7.8 | 0.00 | 0.00 | 0.00 | 72 | 1010.0 |
| 20260505091653 | 56 | 29 | 5.2 | 7.8 | 0.00 | 0.00 | 0.00 | 72 | 1009.8 |
| 20260505091149 | 55 | 22 | 3.5 | 5.2 | 0.00 | 0.00 | 0.00 | 72 | 1009.9 |
| 20260505090645 | 55 | 20 | 3.5 | 9.6 | 0.00 | 0.00 | 0.00 | 73 | 1009.9 |
| 20260505090140 | 55 | 271 | 0.9 | 7.0 | 0.00 | 0.00 | 0.00 | 73 | 1009.8 |
| 20260505085636 | 55 | 28 | 1.7 | 6.1 | 0.00 | 0.00 | 0.00 | 74 | 1010.0 |
| 20260505085133 | 54 | 19 | 0.9 | 3.5 | 0.00 | 0.00 | 0.00 | 75 | 1010.1 |
| 20260505084629 | 54 | 49 | 2.6 | 5.2 | 0.00 | 0.00 | 0.00 | 75 | 1010.1 |
| 20260505084125 | 55 | 5 | 1.7 | 5.2 | 0.00 | 0.00 | 0.00 | 75 | 1010.1 |
| 20260505083621 | 54 | 14 | 3.5 | 7.0 | 0.00 | 0.00 | 0.00 | 75 | 1010.2 |
| 20260505083117 | 54 | 321 | 1.7 | 2.6 | 0.00 | 0.00 | 0.00 | 75 | 1010.0 |
| 20260505082613 | 54 | 26 | 3.5 | 7.8 | 0.00 | 0.00 | 0.00 | 76 | 1010.1 |
| 20260505082109 | 54 | 310 | 0.9 | 7.0 | 0.00 | 0.00 | 0.00 | 76 | 1009.9 |
| 20260505081605 | 54 | 55 | 3.5 | 6.1 | 0.00 | 0.00 | 0.00 | 76 | 1010.1 |
| 20260505081101 | 54 | 3 | 1.7 | 7.8 | 0.00 | 0.00 | 0.00 | 77 | 1010.0 |
| 20260505080556 | 54 | 275 | 0.9 | 3.5 | 0.00 | 0.00 | 0.00 | 77 | 1010.1 |
| 20260505080052 | 53 | 41 | 2.6 | 7.0 | 0.00 | 0.00 | 0.00 | 77 | 1010.1 |
| 20260505075548 | 53 | 322 | 1.7 | 5.2 | 0.00 | 0.00 | 0.00 | 77 | 1009.7 |
| 20260505075045 | 53 | 46 | 1.7 | 6.1 | 0.00 | 0.00 | 0.00 | 78 | 1010.1 |
| 20260505074541 | 53 | 357 | 1.7 | 5.2 | 0.00 | 0.00 | 0.00 | 78 | 1009.9 |
| 20260505074037 | 53 | 6 | 4.3 | 5.2 | 0.00 | 0.00 | 0.00 | 78 | 1010.0 |
| 20260505073533 | 53 | 355 | 2.6 | 7.0 | 0.00 | 0.00 | 0.00 | 79 | 1009.9 |
| 20260505073029 | 53 | 16 | 1.7 | 7.0 | 0.00 | 0.00 | 0.00 | 79 | 1009.9 |
| 20260505072525 | 53 | 51 | 3.5 | 7.8 | 0.00 | 0.00 | 0.00 | 80 | 1010.0 |
| 20260505072021 | 53 | 49 | 0.9 | 6.1 | 0.00 | 0.00 | 0.00 | 80 | 1010.0 |
| 20260505071517 | 53 | 33 | 6.1 | 7.8 | 0.00 | 0.00 | 0.00 | 80 | 1010.2 |
| 20260505071012 | 53 | 337 | 3.5 | 5.2 | 0.00 | 0.00 | 0.00 | 81 | 1010.0 |
| 20260505070508 | 52 | 346 | 4.3 | 7.0 | 0.00 | 0.00 | 0.00 | 81 | 1010.2 |
| 20260505070005 | 53 | 241 | 0.9 | 1.7 | 0.00 | 0.00 | 0.00 | 81 | 1010.0 |
| 20260505065500 | 52 | 323 | 1.7 | 6.1 | 0.00 | 0.00 | 0.00 | 81 | 1010.2 |
| 20260505064957 | 53 | 296 | 1.7 | 5.2 | 0.00 | 0.00 | 0.00 | 81 | 1010.3 |
| 20260505064453 | 53 | 15 | 0.9 | 2.6 | 0.00 | 0.00 | 0.00 | 81 | 1010.2 |
| 20260505063949 | 53 | 325 | 1.7 | 5.2 | 0.00 | 0.00 | 0.00 | 81 | 1010.3 |
| 20260505063445 | 53 | 46 | 1.7 | 2.6 | 0.00 | 0.00 | 0.00 | 81 | 1010.1 |
| 20260505062941 | 53 | 318 | 0.9 | 1.7 | 0.00 | 0.00 | 0.00 | 80 | 1010.3 |
| 20260505062436 | 53 | 30 | 0.9 | 1.7 | 0.00 | 0.00 | 0.00 | 81 | 1010.1 |
| 20260505061932 | 53 | 309 | 0.0 | 2.6 | 0.00 | 0.00 | 0.00 | 81 | 1010.0 |
| 20260505061428 | 53 | 295 | 0.0 | 2.6 | 0.00 | 0.00 | 0.00 | 82 | 1010.2 |
| 20260505060924 | 52 | 27 | 0.9 | 2.6 | 0.00 | 0.00 | 0.00 | 82 | 1010.2 |
| 20260505060420 | 52 | 48 | 0.0 | 1.7 | 0.00 | 0.00 | 0.00 | 83 | 1010.1 |
| 20260505055916 | 52 | 353 | 0.9 | 1.7 | 0.00 | 0.00 | 0.00 | 83 | 1010.1 |
| 20260505055412 | 52 | 69 | 0.0 | 1.7 | 0.00 | 0.00 | 0.00 | 84 | 1010.0 |
| 20260505054909 | 51 | 92 | 0.0 | 1.7 | 0.00 | 0.00 | 0.00 | 84 | 1010.2 |
| 20260505054405 | 51 | 324 | 1.7 | 2.6 | 0.00 | 0.00 | 0.00 | 84 | 1010.1 |
| 20260505053901 | 51 | 309 | 0.9 | 1.7 | 0.00 | 0.00 | 0.00 | 85 | 1010.2 |
| 20260505053357 | 51 | 315 | 0.9 | 1.7 | 0.00 | 0.00 | 0.00 | 85 | 1010.2 |
| 20260505052852 | 51 | 53 | 0.9 | 1.7 | 0.00 | 0.00 | 0.00 | 85 | 1010.3 |
| 20260505052348 | 51 | 38 | 1.7 | 2.6 | 0.00 | 0.00 | 0.00 | 85 | 1010.3 |
| 20260505051844 | 51 | 29 | 2.6 | 3.5 | 0.00 | 0.00 | 0.00 | 85 | 1010.3 |
| 20260505051340 | 51 | 2 | 1.7 | 2.6 | 0.00 | 0.00 | 0.00 | 85 | 1010.3 |
| 20260505050836 | 51 | 22 | 2.6 | 2.6 | 0.00 | 0.00 | 0.00 | 86 | 1010.4 |
| 20260505050332 | 51 | 33 | 0.0 | 2.6 | 0.00 | 0.00 | 0.00 | 86 | 1010.3 |
| 20260505041756 | 51 | 320 | 1.7 | 3.5 | 0.00 | 0.00 | 0.00 | 87 | 1010.2 |
| 20260505041252 | 51 | 326 | 1.7 | 1.7 | 0.00 | 0.00 | 0.00 | 87 | 1010.4 |
| 20260505040748 | 51 | 7 | 0.9 | 0.9 | 0.00 | 0.00 | 0.00 | 87 | 1010.3 |
| 20260505040244 | 51 | 339 | 1.7 | 1.7 | 0.00 | 0.00 | 0.00 | 87 | 1010.4 |
| 20260505035740 | 51 | 72 | 0.0 | 0.9 | 0.00 | 0.00 | 0.00 | 87 | 1010.3 |
| 20260505035236 | 51 | 24 | 0.9 | 2.6 | 0.00 | 0.00 | 0.00 | 87 | 1010.3 |
| 20260505034733 | 51 | 46 | 1.7 | 1.7 | 0.00 | 0.00 | 0.00 | 87 | 1010.4 |
| 20260505034228 | 51 | 60 | 0.9 | 2.6 | 0.00 | 0.00 | 0.00 | 87 | 1010.4 |
| 20260505033724 | 51 | 319 | 1.7 | 5.2 | 0.00 | 0.00 | 0.00 | 87 | 1010.5 |
| 20260505033220 | 51 | 28 | 1.7 | 1.7 | 0.00 | 0.00 | 0.00 | 87 | 1010.3 |
| 20260505032716 | 51 | 340 | 3.5 | 5.2 | 0.00 | 0.00 | 0.00 | 87 | 1010.6 |
| 20260505032212 | 51 | 59 | 0.9 | 3.5 | 0.00 | 0.00 | 0.00 | 87 | 1010.6 |
| 20260505031708 | 51 | 14 | 0.0 | 2.6 | 0.00 | 0.00 | 0.00 | 88 | 1010.4 |
| 20260505031204 | 51 | 7 | 3.5 | 3.5 | 0.00 | 0.00 | 0.00 | 88 | 1010.4 |
| 20260505030700 | 52 | 316 | 0.9 | 2.6 | 0.00 | 0.00 | 0.00 | 88 | 1010.6 |
| 20260505030156 | 52 | 48 | 0.9 | 2.6 | 0.00 | 0.00 | 0.00 | 88 | 1010.3 |
| 20260505025652 | 52 | 28 | 1.7 | 3.5 | 0.00 | 0.00 | 0.00 | 88 | 1010.4 |
| 20260505025148 | 52 | 56 | 0.9 | 2.6 | 0.00 | 0.00 | 0.00 | 88 | 1010.3 |
| 20260505024645 | 52 | 82 | 1.7 | 6.1 | 0.00 | 0.00 | 0.00 | 88 | 1010.2 |
| 20260505024141 | 52 | 32 | 4.3 | 6.1 | 0.00 | 0.00 | 0.00 | 88 | 1010.4 |
| 20260505023637 | 52 | 34 | 3.5 | 5.2 | 0.00 | 0.00 | 0.00 | 89 | 1010.5 |
| 20260505023133 | 52 | 38 | 3.5 | 3.5 | 0.00 | 0.00 | 0.00 | 89 | 1010.6 |
| 20260505022628 | 52 | 46 | 2.6 | 3.5 | 0.00 | 0.00 | 0.00 | 89 | 1010.4 |
| 20260505022124 | 52 | 281 | 0.0 | 0.9 | 0.00 | 0.00 | 0.00 | 90 | 1010.5 |
| 20260505021620 | 52 | 39 | 0.9 | 2.6 | 0.00 | 0.00 | 0.00 | 90 | 1010.4 |
| 20260505021116 | 52 | 31 | 4.3 | 6.1 | 0.00 | 0.00 | 0.00 | 90 | 1010.4 |
| 20260505020612 | 52 | 43 | 2.6 | 3.5 | 0.00 | 0.00 | 0.00 | 90 | 1010.5 |
| 20260505020108 | 52 | 36 | 5.2 | 6.1 | 0.00 | 0.00 | 0.00 | 90 | 1010.4 |
| 20260505015604 | 52 | 13 | 0.0 | 2.6 | 0.00 | 0.00 | 0.00 | 90 | 1010.5 |
| 20260505015101 | 52 | 41 | 1.7 | 6.1 | 0.00 | 0.00 | 0.00 | 90 | 1010.4 |
| 20260505014557 | 52 | 235 | 0.9 | 2.6 | 0.00 | 0.00 | 0.00 | 90 | 1010.4 |
| 20260505014053 | 52 | 354 | 1.7 | 3.5 | 0.00 | 0.00 | 0.00 | 90 | 1010.4 |
| 20260505013549 | 53 | 45 | 1.7 | 1.7 | 0.00 | 0.00 | 0.00 | 90 | 1010.8 |
| 20260505013044 | 52 | 93 | 1.7 | 2.6 | 0.00 | 0.00 | 0.00 | 90 | 1010.7 |
| 20260505012540 | 53 | 80 | 1.7 | 2.6 | 0.00 | 0.00 | 0.00 | 90 | 1011.0 |
| 20260505012036 | 53 | 99 | 0.9 | 2.6 | 0.00 | 0.00 | 0.00 | 90 | 1010.8 |
| 20260505011532 | 53 | 94 | 0.9 | 3.5 | 0.00 | 0.00 | 0.00 | 90 | 1011.2 |
| 20260505011028 | 53 | 93 | 0.9 | 1.7 | 0.00 | 0.00 | 0.00 | 90 | 1011.0 |
| 20260505010524 | 53 | 97 | 1.7 | 2.6 | 0.00 | 0.00 | 0.00 | 90 | 1011.0 |
| 20260505010020 | 53 | 103 | 0.9 | 3.5 | 0.00 | 0.00 | 0.00 | 90 | 1011.2 |
| 20260505005516 | 53 | 60 | 2.6 | 2.6 | 0.00 | 0.00 | 0.00 | 89 | 1011.0 |
| 20260505005013 | 53 | 57 | 3.5 | 5.2 | 0.00 | 0.00 | 0.00 | 89 | 1010.7 |
| 20260505004509 | 53 | 85 | 0.9 | 1.7 | 0.00 | 0.00 | 0.00 | 89 | 1010.8 |
| 20260505004005 | 53 | 61 | 3.5 | 3.5 | 0.00 | 0.00 | 0.00 | 89 | 1010.9 |
| 20260505003500 | 53 | 105 | 0.9 | 3.5 | 0.00 | 0.00 | 0.00 | 88 | 1011.0 |
| 20260505002956 | 53 | 83 | 0.9 | 3.5 | 0.00 | 0.00 | 0.00 | 88 | 1010.9 |
| 20260505002452 | 53 | 80 | 1.7 | 2.6 | 0.00 | 0.00 | 0.00 | 88 | 1011.0 |
| 20260505001948 | 53 | 86 | 0.9 | 2.6 | 0.00 | 0.00 | 0.00 | 88 | 1011.1 |
| 20260505001444 | 53 | 82 | 1.7 | 3.5 | 0.00 | 0.00 | 0.00 | 87 | 1011.1 |
| 20260505000940 | 53 | 128 | 0.9 | 2.6 | 0.00 | 0.00 | 0.00 | 87 | 1011.2 |
| 20260505000436 | 54 | 49 | 0.9 | 5.2 | 0.00 | 0.00 | 0.00 | 86 | 1011.2 |
| 20260504235932 | 54 | 47 | 2.6 | 7.0 | 0.00 | 0.00 | 0.00 | 85 | 1011.0 |
| 20260504235428 | 54 | 61 | 1.7 | 3.5 | 0.00 | 0.00 | 0.00 | 84 | 1011.1 |
| 20260504234925 | 54 | 58 | 3.5 | 7.0 | 0.00 | 0.00 | 0.00 | 83 | 1011.4 |
| 20260504234421 | 55 | 69 | 4.3 | 7.0 | 0.00 | 0.00 | 0.00 | 82 | 1011.3 |
| 20260504233917 | 55 | 64 | 0.9 | 3.5 | 0.00 | 0.00 | 0.00 | 80 | 1011.2 |
| 20260504233413 | 55 | 40 | 2.6 | 5.2 | 0.00 | 0.00 | 0.00 | 79 | 1011.3 |
| 20260504232909 | 55 | 330 | 2.6 | 2.6 | 0.00 | 0.00 | 0.00 | 79 | 1011.4 |
| 20260504232405 | 55 | 38 | 0.0 | 3.5 | 0.00 | 0.00 | 0.00 | 79 | 1011.4 |
| 20260504231901 | 55 | 9 | 3.5 | 5.2 | 0.00 | 0.00 | 0.00 | 79 | 1011.5 |
| 20260504231357 | 55 | 47 | 0.0 | 3.5 | 0.00 | 0.00 | 0.00 | 79 | 1011.3 |
| 20260504230853 | 55 | 33 | 1.7 | 2.6 | 0.00 | 0.00 | 0.00 | 78 | 1011.4 |
| 20260504230349 | 55 | 315 | 0.9 | 1.7 | 0.00 | 0.00 | 0.00 | 78 | 1011.4 |
| 20260504225845 | 55 | 354 | 0.9 | 6.1 | 0.00 | 0.00 | 0.00 | 78 | 1011.2 |
| 20260504225341 | 55 | 270 | 0.9 | 0.9 | 0.00 | 0.00 | 0.00 | 78 | 1011.5 |
| 20260504224837 | 55 | 21 | 0.9 | 2.6 | 0.00 | 0.00 | 0.00 | 78 | 1011.3 |
| 20260504224333 | 55 | 341 | 2.6 | 5.2 | 0.00 | 0.00 | 0.00 | 78 | 1011.4 |
| 20260504223829 | 55 | 323 | 1.7 | 3.5 | 0.00 | 0.00 | 0.00 | 78 | 1011.3 |
| 20260504223325 | 55 | 20 | 1.7 | 6.1 | 0.00 | 0.00 | 0.00 | 78 | 1011.4 |
| 20260504222821 | 55 | 347 | 1.7 | 3.5 | 0.00 | 0.00 | 0.00 | 78 | 1011.2 |
| 20260504222317 | 55 | 65 | 1.7 | 3.5 | 0.00 | 0.00 | 0.00 | 78 | 1011.5 |
| 20260504221813 | 55 | 54 | 0.9 | 3.5 | 0.00 | 0.00 | 0.00 | 78 | 1011.4 |
| 20260504221309 | 56 | 305 | 2.6 | 2.6 | 0.00 | 0.00 | 0.00 | 78 | 1011.5 |
| 20260504220805 | 56 | 39 | 0.9 | 3.5 | 0.00 | 0.00 | 0.00 | 78 | 1011.3 |
| 20260504220301 | 56 | 42 | 3.5 | 6.1 | 0.00 | 0.00 | 0.00 | 78 | 1011.5 |
| 20260504215757 | 56 | 358 | 1.7 | 3.5 | 0.00 | 0.00 | 0.00 | 77 | 1011.7 |
| 20260504215253 | 56 | 328 | 0.9 | 1.7 | 0.00 | 0.00 | 0.00 | 78 | 1011.6 |
| 20260504214748 | 56 | 17 | 1.7 | 6.1 | 0.00 | 0.00 | 0.00 | 77 | 1011.4 |
| 20260504214244 | 56 | 330 | 1.7 | 5.2 | 0.00 | 0.00 | 0.00 | 77 | 1011.5 |
| 20260504213740 | 56 | 121 | 0.9 | 6.1 | 0.00 | 0.00 | 0.00 | 77 | 1011.4 |
| 20260504213236 | 56 | 21 | 2.6 | 8.7 | 0.00 | 0.00 | 0.00 | 77 | 1011.4 |
| 20260504212732 | 56 | 53 | 1.7 | 5.2 | 0.00 | 0.00 | 0.00 | 77 | 1011.3 |